Time,TemperatureF,DewpointF,PressureIn,WindDirection,WindDirectionDegrees,WindSpeedMPH,WindSpeedGustMPH,Humidity,HourlyPrecipIn,Conditions,Clouds,dailyrainin,SoftwareType,DateUTC
2013-02-03 00:00:00,26.8,19.0,30.03,North,351,0.0,0.0,72,0.00,,,0.00,WeatherDisplay:10.36,2013-02-03 06:00:00,
2013-02-03 00:05:00,27.0,19.1,30.82,North,351,0.0,0.0,72,0.00,,,0.00,WeatherDisplay:10.36,2013-02-03 06:05:00,
2013-02-03 00:10:00,27.1,19.6,30.82,North,351,4.0,0.0,73,0.00,,,0.00,WeatherDisplay:10.36,2013-02-03 06:10:00,
2013-02-03 00:15:00,27.0,19.1,30.82,NE,43,3.6,3.6,72,0.00,,,0.00,WeatherDisplay:10.36,2013-02-03 06:15:00,
2013-02-03 00:20:00,26.8,19.0,30.03,NE,43,0.0,0.0,72,0.00,,,0.00,WeatherDisplay:10.36,2013-02-03 06:20:00,
2013-02-03 00:25:00,26.6,18.8,30.03,NE,43,0.0,0.0,72,0.00,,,0.00,WeatherDisplay:10.36,2013-02-03 06:25:00,
2013-02-03 00:30:00,26.6,19.1,30.03,NE,41,0.0,0.0,73,0.00,,,0.00,WeatherDisplay:10.36,2013-02-03 06:30:00,
2013-02-03 00:35:00,26.8,19.3,30.03,NE,41,0.0,0.0,73,0.00,,,0.00,WeatherDisplay:10.36,2013-02-03 06:35:00,
2013-02-03 00:40:00,27.0,19.5,30.03,NE,44,0.0,0.0,73,0.00,,,0.00,WeatherDisplay:10.36,2013-02-03 06:40:00,
2013-02-03 00:45:00,27.1,19.6,30.03,NE,42,0.0,0.0,73,0.00,,,0.00,WeatherDisplay:10.36,2013-02-03 06:45:00,
2013-02-03 00:50:00,27.1,19.6,30.00,NE,41,0.0,0.0,73,0.00,,,0.00,WeatherDisplay:10.36,2013-02-03 06:50:00,
2013-02-03 00:55:00,27.1,19.6,30.00,NE,41,0.0,0.0,73,0.00,,,0.00,WeatherDisplay:10.36,2013-02-03 06:55:00,
2013-02-03 01:00:00,27.3,20.1,30.00,NE,41,0.0,0.0,74,0.00,,,0.00,WeatherDisplay:10.36,2013-02-03 07:00:00,
2013-02-03 01:05:00,27.5,20.3,30.00,NE,47,0.0,0.0,74,0.00,,,0.00,WeatherDisplay:10.36,2013-02-03 07:05:00,
2013-02-03 01:10:00,27.5,20.0,30.00,NE,47,0.0,0.0,73,0.00,,,0.00,WeatherDisplay:10.36,2013-02-03 07:10:00,
2013-02-03 01:15:00,27.7,20.2,30.00,NE,47,0.0,0.0,73,0.00,,,0.00,WeatherDisplay:10.36,2013-02-03 07:15:00,
2013-02-03 01:20:00,27.7,20.5,30.00,NE,46,0.0,0.0,74,0.00,,,0.00,WeatherDisplay:10.36,2013-02-03 07:20:00,
2013-02-03 01:25:00,27.7,20.5,30.00,NE,44,0.0,0.0,74,0.00,,,0.00,WeatherDisplay:10.36,2013-02-03 07:25:00,
2013-02-03 01:30:00,27.7,20.5,30.00,NE,46,0.0,0.0,74,0.00,,,0.00,WeatherDisplay:10.36,2013-02-03 07:30:00,
2013-02-03 01:35:00,27.9,20.6,30.00,NE,43,3.6,3.6,74,0.00,,,0.00,WeatherDisplay:10.36,2013-02-03 07:35:00,
2013-02-03 01:40:00,27.9,20.6,30.00,NE,46,0.0,0.0,74,0.00,,,0.00,WeatherDisplay:10.36,2013-02-03 07:40:00,
2013-02-03 01:45:00,28.0,20.8,30.00,ENE,62,4.9,4.9,74,0.00,,,0.00,WeatherDisplay:10.36,2013-02-03 07:45:00,
2013-02-03 01:50:00,28.0,20.8,30.00,NE,47,3.6,4.5,74,0.00,,,0.00,WeatherDisplay:10.36,2013-02-03 07:50:00,
2013-02-03 01:55:00,28.0,21.1,30.00,NE,47,4.0,4.0,75,0.00,,,0.00,WeatherDisplay:10.36,2013-02-03 07:55:00,
2013-02-03 02:00:00,28.2,21.3,30.00,NE,48,4.5,5.4,75,0.00,,,0.00,WeatherDisplay:10.36,2013-02-03 08:00:00,
2013-02-03 02:05:00,28.2,21.6,30.00,NE,48,5.8,5.8,76,0.00,,,0.00,WeatherDisplay:10.36,2013-02-03 08:05:00,
2013-02-03 02:10:00,28.2,21.6,30.00,East,101,5.4,5.4,76,0.00,,,0.00,WeatherDisplay:10.36,2013-02-03 08:10:00,
2013-02-03 02:15:00,28.4,21.8,30.00,NE,47,4.0,4.0,76,0.00,,,0.00,WeatherDisplay:10.36,2013-02-03 08:15:00,
2013-02-03 02:20:00,28.4,21.8,30.00,NE,46,4.9,4.9,76,0.00,,,0.00,WeatherDisplay:10.36,2013-02-03 08:20:00,
2013-02-03 02:25:00,28.4,21.8,30.00,NE,56,5.8,5.8,76,0.00,,,0.00,WeatherDisplay:10.36,2013-02-03 08:25:00,
2013-02-03 02:30:00,28.4,21.8,30.00,NE,46,4.0,4.5,76,0.00,,,0.00,WeatherDisplay:10.36,2013-02-03 08:30:00,
2013-02-03 02:35:00,28.2,21.9,30.00,NE,49,6.9,6.9,77,0.00,,,0.00,WeatherDisplay:10.36,2013-02-03 08:35:00,
2013-02-03 02:40:00,28.2,21.9,30.00,ENE,59,6.3,6.3,77,0.00,,,0.00,WeatherDisplay:10.36,2013-02-03 08:40:00,
2013-02-03 02:45:00,28.0,21.8,30.00,NE,51,6.7,6.7,77,0.00,,,0.00,WeatherDisplay:10.36,2013-02-03 08:45:00,
2013-02-03 02:50:00,28.0,21.8,30.00,NE,47,5.8,5.8,77,0.00,,,0.00,WeatherDisplay:10.36,2013-02-03 08:50:00,
2013-02-03 02:55:00,28.0,21.8,30.00,NE,46,5.8,5.8,77,0.00,,,0.00,WeatherDisplay:10.36,2013-02-03 08:55:00,
2013-02-03 03:00:00,28.0,21.8,30.00,NE,50,4.5,4.5,77,0.00,,,0.00,WeatherDisplay:10.36,2013-02-03 09:00:00,
2013-02-03 03:05:00,28.0,21.8,30.00,NE,50,6.9,6.9,77,0.00,,,0.00,WeatherDisplay:10.36,2013-02-03 09:05:00,
2013-02-03 03:10:00,28.4,22.4,30.00,NE,53,5.8,5.8,78,0.00,,,0.00,WeatherDisplay:10.36,2013-02-03 09:10:00,
2013-02-03 03:15:00,28.6,22.6,30.00,NE,47,6.7,6.7,78,0.00,,,0.00,WeatherDisplay:10.36,2013-02-03 09:15:00,
2013-02-03 03:20:00,28.8,22.8,30.00,NE,49,6.3,6.3,78,0.00,,,0.00,WeatherDisplay:10.36,2013-02-03 09:20:00,
2013-02-03 03:25:00,28.9,22.9,30.00,NE,48,7.8,7.8,78,0.00,,,0.00,WeatherDisplay:10.36,2013-02-03 09:25:00,
2013-02-03 03:30:00,29.1,23.4,30.00,NE,44,5.4,5.4,79,0.00,,,0.00,WeatherDisplay:10.36,2013-02-03 09:30:00,
2013-02-03 03:35:00,29.1,23.4,30.00,NE,44,5.8,5.8,79,0.00,,,0.00,WeatherDisplay:10.36,2013-02-03 09:35:00,
2013-02-03 03:40:00,29.3,23.6,30.00,NE,49,5.8,5.8,79,0.00,,,0.00,WeatherDisplay:10.36,2013-02-03 09:40:00,
2013-02-03 03:45:00,29.5,23.8,30.00,NE,45,5.8,5.8,79,0.00,,,0.00,WeatherDisplay:10.36,2013-02-03 09:45:00,
2013-02-03 03:50:00,29.3,23.6,30.00,NE,51,4.9,4.9,79,0.00,,,0.00,WeatherDisplay:10.36,2013-02-03 09:50:00,
2013-02-03 03:55:00,29.3,23.6,30.00,NE,46,6.9,6.9,79,0.00,,,0.00,WeatherDisplay:10.36,2013-02-03 09:55:00,
2013-02-03 04:00:00,29.1,23.4,30.00,NE,50,4.5,4.5,79,0.00,,,0.00,WeatherDisplay:10.36,2013-02-03 10:00:00,
2013-02-03 04:05:00,28.9,23.2,30.00,NE,52,5.8,5.8,79,0.00,,,0.00,WeatherDisplay:10.36,2013-02-03 10:05:00,
2013-02-03 04:10:00,29.1,23.7,30.00,NE,56,4.5,4.5,80,0.00,,,0.00,WeatherDisplay:10.36,2013-02-03 10:10:00,
2013-02-03 04:15:00,29.3,23.9,30.00,NE,48,5.8,5.8,80,0.00,,,0.00,WeatherDisplay:10.36,2013-02-03 10:15:00,
2013-02-03 04:20:00,29.5,24.1,30.00,NE,45,4.5,4.5,80,0.00,,,0.00,WeatherDisplay:10.36,2013-02-03 10:20:00,
2013-02-03 04:25:00,29.7,24.2,30.00,NE,49,5.8,5.8,80,0.00,,,0.00,WeatherDisplay:10.36,2013-02-03 10:25:00,
2013-02-03 04:30:00,29.7,24.2,30.00,NE,49,4.5,5.8,80,0.00,,,0.00,WeatherDisplay:10.36,2013-02-03 10:30:00,
2013-02-03 04:35:00,29.8,24.4,30.03,NE,46,4.9,4.9,80,0.00,,,0.00,WeatherDisplay:10.36,2013-02-03 10:35:00,
2013-02-03 04:40:00,30.0,24.6,30.03,ENE,60,6.7,6.7,80,0.00,,,0.00,WeatherDisplay:10.36,2013-02-03 10:40:00,
2013-02-03 04:45:00,30.2,24.8,30.03,NE,55,5.8,5.8,80,0.00,,,0.00,WeatherDisplay:10.36,2013-02-03 10:45:00,
2013-02-03 04:50:00,30.2,24.8,30.03,NE,50,4.9,4.9,80,0.00,,,0.00,WeatherDisplay:10.36,2013-02-03 10:50:00,
2013-02-03 04:55:00,30.4,24.9,30.03,NE,50,6.9,6.9,80,0.00,,,0.00,WeatherDisplay:10.36,2013-02-03 10:55:00,
2013-02-03 05:00:00,30.4,24.9,30.03,NE,50,5.8,5.8,80,0.00,,,0.00,WeatherDisplay:10.36,2013-02-03 11:00:00,
2013-02-03 05:05:00,30.4,24.9,30.03,NE,48,4.0,5.8,80,0.00,,,0.00,WeatherDisplay:10.36,2013-02-03 11:05:00,
2013-02-03 05:11:00,30.2,24.8,30.03,NE,48,6.9,6.9,80,0.00,,,0.00,WeatherDisplay:10.36,2013-02-03 11:11:00,
2013-02-03 05:16:00,30.0,24.6,30.03,NE,47,5.8,5.8,80,0.00,,,0.00,WeatherDisplay:10.36,2013-02-03 11:16:00,
2013-02-03 05:21:00,29.7,24.2,30.03,NE,50,3.6,0.0,80,0.00,,,0.00,WeatherDisplay:10.36,2013-02-03 11:21:00,
2013-02-03 05:26:00,29.5,24.1,30.03,NE,50,4.6,4.6,80,0.00,,,0.00,WeatherDisplay:10.36,2013-02-03 11:26:00,
2013-02-03 05:31:00,29.3,23.9,30.03,NE,53,5.4,5.4,80,0.00,,,0.00,WeatherDisplay:10.36,2013-02-03 11:31:00,
2013-02-03 05:36:00,29.1,23.7,30.03,NE,47,3.6,3.6,80,0.00,,,0.00,WeatherDisplay:10.36,2013-02-03 11:36:00,
2013-02-03 05:41:00,29.3,23.9,30.03,NE,46,6.9,6.9,80,0.00,,,0.00,WeatherDisplay:10.36,2013-02-03 11:41:00,
2013-02-03 05:46:00,29.3,23.9,30.03,NE,48,6.9,6.9,80,0.00,,,0.00,WeatherDisplay:10.36,2013-02-03 11:46:00,
2013-02-03 05:51:00,29.5,24.1,30.03,NE,50,10.5,10.5,80,0.00,,,0.00,WeatherDisplay:10.36,2013-02-03 11:51:00,
2013-02-03 05:56:00,29.7,24.2,30.03,NE,49,6.3,6.3,80,0.00,,,0.00,WeatherDisplay:10.36,2013-02-03 11:56:00,
2013-02-03 06:01:00,29.7,24.2,30.03,ENE,59,10.5,10.5,80,0.00,,,0.00,WeatherDisplay:10.36,2013-02-03 12:01:00,
2013-02-03 06:06:00,29.8,24.4,30.03,NE,50,7.4,7.4,80,0.00,,,0.00,WeatherDisplay:10.36,2013-02-03 12:06:00,
2013-02-03 06:11:00,29.8,24.4,30.03,NE,51,9.2,9.2,80,0.00,,,0.00,WeatherDisplay:10.36,2013-02-03 12:11:00,
2013-02-03 06:16:00,29.8,24.1,30.06,NE,47,9.2,9.2,79,0.00,,,0.00,WeatherDisplay:10.36,2013-02-03 12:16:00,
2013-02-03 06:21:00,29.8,24.1,30.06,NE,48,7.8,7.8,79,0.00,,,0.00,WeatherDisplay:10.36,2013-02-03 12:21:00,
2013-02-03 06:26:00,29.8,24.1,30.06,NE,54,8.7,8.7,79,0.00,,,0.00,WeatherDisplay:10.36,2013-02-03 12:26:00,
2013-02-03 06:31:00,29.7,23.9,30.06,ENE,78,10.1,10.1,79,0.00,,,0.00,WeatherDisplay:10.36,2013-02-03 12:31:00,
2013-02-03 06:36:00,29.7,23.6,30.06,NE,46,7.4,7.4,78,0.00,,,0.00,WeatherDisplay:10.36,2013-02-03 12:36:00,
2013-02-03 06:41:00,29.5,23.5,30.06,NE,51,10.9,10.9,78,0.00,,,0.00,WeatherDisplay:10.36,2013-02-03 12:41:00,
2013-02-03 06:46:00,29.5,23.2,30.06,NE,48,11.5,11.5,77,0.00,,,0.00,WeatherDisplay:10.36,2013-02-03 12:46:00,
2013-02-03 06:51:00,29.3,23.0,30.06,NE,52,10.5,10.5,77,0.00,,,0.00,WeatherDisplay:10.36,2013-02-03 12:51:00,
2013-02-03 06:56:00,29.3,23.0,30.06,NE,53,6.9,6.9,77,0.00,,,0.00,WeatherDisplay:10.36,2013-02-03 12:56:00,
2013-02-03 07:01:00,29.3,22.7,30.06,NE,45,5.8,5.8,76,0.00,,,0.00,WeatherDisplay:10.36,2013-02-03 13:01:00,
2013-02-03 07:06:00,29.1,22.5,30.06,NE,49,7.4,7.4,76,0.00,,,0.00,WeatherDisplay:10.36,2013-02-03 13:06:00,
2013-02-03 07:11:00,29.1,22.2,30.06,NE,46,6.9,6.9,75,0.00,,,0.00,WeatherDisplay:10.36,2013-02-03 13:11:00,
2013-02-03 07:16:00,29.1,22.2,30.08,ESE,111,11.5,11.5,75,0.00,,,0.00,WeatherDisplay:10.36,2013-02-03 13:16:00,
2013-02-03 07:21:00,28.9,21.7,30.08,NE,56,9.2,9.2,74,0.00,,,0.00,WeatherDisplay:10.36,2013-02-03 13:21:00,
2013-02-03 07:26:00,28.9,21.7,30.08,NE,49,11.6,11.6,74,0.00,,,0.00,WeatherDisplay:10.36,2013-02-03 13:26:00,
2013-02-03 07:31:00,28.9,21.4,30.08,ENE,64,6.9,6.9,73,0.00,,,0.00,WeatherDisplay:10.36,2013-02-03 13:31:00,
2013-02-03 07:36:00,28.8,20.9,30.08,NE,51,9.2,9.2,72,0.00,,,0.00,WeatherDisplay:10.36,2013-02-03 13:36:00,
2013-02-03 07:41:00,28.8,20.5,30.08,SSW,212,9.2,9.2,71,0.00,,,0.00,WeatherDisplay:10.36,2013-02-03 13:41:00,
2013-02-03 07:46:00,28.8,20.5,30.11,NE,53,5.8,5.8,71,0.00,,,0.00,WeatherDisplay:10.36,2013-02-03 13:46:00,
2013-02-03 07:51:00,28.6,20.0,30.11,NE,50,6.9,6.9,70,0.00,,,0.00,WeatherDisplay:10.36,2013-02-03 13:51:00,
2013-02-03 07:56:00,28.2,19.3,30.11,NE,44,6.9,6.9,69,0.00,,,0.00,WeatherDisplay:10.36,2013-02-03 13:56:00,
2013-02-03 08:01:00,28.0,19.2,30.11,NE,45,6.7,6.7,69,0.00,,,0.00,WeatherDisplay:10.36,2013-02-03 14:01:00,
2013-02-03 08:06:00,27.9,18.7,30.11,NE,52,4.9,4.9,68,0.00,,,0.00,WeatherDisplay:10.36,2013-02-03 14:06:00,
2013-02-03 08:11:00,27.7,18.1,30.11,NE,48,7.4,7.4,67,0.00,,,0.00,WeatherDisplay:10.36,2013-02-03 14:11:00,
2013-02-03 08:16:00,27.7,17.4,30.11,NE,46,11.5,11.5,65,0.00,,,0.00,WeatherDisplay:10.36,2013-02-03 14:16:00,
2013-02-03 08:21:00,27.5,16.9,30.11,NE,47,7.4,7.4,64,0.00,,,0.00,WeatherDisplay:10.36,2013-02-03 14:21:00,
2013-02-03 08:26:00,27.5,16.5,30.11,NE,49,8.3,8.3,63,0.00,,,0.00,WeatherDisplay:10.36,2013-02-03 14:26:00,
2013-02-03 08:31:00,27.9,16.1,30.14,ENE,57,6.7,6.7,61,0.00,,,0.00,WeatherDisplay:10.36,2013-02-03 14:31:00,
2013-02-03 08:36:00,28.2,15.7,30.14,NE,51,9.2,9.2,59,0.00,,,0.00,WeatherDisplay:10.36,2013-02-03 14:36:00,
2013-02-03 08:41:00,28.8,15.8,30.14,NE,45,6.9,6.9,58,0.00,,,0.00,WeatherDisplay:10.36,2013-02-03 14:41:00,
2013-02-03 08:46:00,29.1,15.4,30.14,NE,52,8.1,8.1,56,0.00,,,0.00,WeatherDisplay:10.36,2013-02-03 14:46:00,
2013-02-03 08:51:00,29.7,15.0,30.14,NE,53,9.2,9.2,54,0.00,,,0.00,WeatherDisplay:10.36,2013-02-03 14:51:00,
2013-02-03 08:56:00,30.4,15.7,30.14,NE,52,6.9,6.9,54,0.00,,,0.00,WeatherDisplay:10.36,2013-02-03 14:56:00,
2013-02-03 09:01:00,30.9,15.8,30.14,NE,49,11.5,11.5,53,0.00,,,0.00,WeatherDisplay:10.36,2013-02-03 15:01:00,
2013-02-03 09:06:00,31.5,15.8,30.14,ENE,58,9.2,9.2,52,0.00,,,0.00,WeatherDisplay:10.36,2013-02-03 15:06:00,
2013-02-03 09:11:00,32.0,15.4,30.14,NE,51,10.9,10.9,50,0.00,,,0.00,WeatherDisplay:10.36,2013-02-03 15:11:00,
2013-02-03 09:16:00,32.5,15.5,30.14,NE,49,9.6,9.6,49,0.00,,,0.00,WeatherDisplay:10.36,2013-02-03 15:16:00,
2013-02-03 09:21:00,32.9,15.3,30.14,NE,46,6.9,6.9,48,0.00,,,0.00,WeatherDisplay:10.36,2013-02-03 15:21:00,
2013-02-03 09:26:00,33.3,14.7,30.14,NE,48,6.3,6.3,46,0.00,,,0.00,WeatherDisplay:10.36,2013-02-03 15:26:00,
2013-02-03 09:31:00,33.6,14.5,30.14,NE,46,8.3,8.3,45,0.00,,,0.00,WeatherDisplay:10.36,2013-02-03 15:31:00,
2013-02-03 09:36:00,33.8,14.2,30.14,NE,43,5.8,0.0,44,0.00,,,0.00,WeatherDisplay:10.36,2013-02-03 15:36:00,
2013-02-03 09:41:00,34.2,14.0,30.14,NE,55,9.6,9.6,43,0.00,,,0.00,WeatherDisplay:10.36,2013-02-03 15:41:00,
2013-02-03 09:46:00,34.3,13.6,30.14,ENE,58,8.1,8.1,42,0.00,,,0.00,WeatherDisplay:10.36,2013-02-03 15:46:00,
2013-02-03 09:51:00,34.3,13.6,30.14,NE,53,8.3,8.3,42,0.00,,,0.00,WeatherDisplay:10.36,2013-02-03 15:51:00,
2013-02-03 09:56:00,34.3,13.0,30.14,NE,50,11.5,11.5,41,0.00,,,0.00,WeatherDisplay:10.36,2013-02-03 15:56:00,
2013-02-03 10:01:00,34.0,12.2,30.17,NE,50,6.3,6.3,40,0.00,,,0.00,WeatherDisplay:10.36,2013-02-03 16:01:00,
2013-02-03 10:06:00,34.0,12.2,30.17,NE,48,9.2,9.2,40,0.00,,,0.00,WeatherDisplay:10.36,2013-02-03 16:06:00,
2013-02-03 10:11:00,34.2,12.3,30.17,NE,49,6.3,6.3,40,0.00,,,0.00,WeatherDisplay:10.36,2013-02-03 16:11:00,
2013-02-03 10:16:00,34.0,12.2,30.17,NE,49,6.9,6.9,40,0.00,,,0.00,WeatherDisplay:10.36,2013-02-03 16:16:00,
2013-02-03 10:21:00,34.2,12.3,30.17,NE,55,6.9,6.9,40,0.00,,,0.00,WeatherDisplay:10.36,2013-02-03 16:21:00,
2013-02-03 10:26:00,34.3,12.5,30.17,North,351,8.3,8.3,40,0.00,,,0.00,WeatherDisplay:10.36,2013-02-03 16:26:00,
2013-02-03 10:31:00,34.3,12.5,30.17,NE,47,8.1,8.1,40,0.00,,,0.00,WeatherDisplay:10.36,2013-02-03 16:31:00,
2013-02-03 10:36:00,34.7,12.8,30.17,ENE,68,8.3,8.3,40,0.00,,,0.00,WeatherDisplay:10.36,2013-02-03 16:36:00,
2013-02-03 10:41:00,34.9,13.0,30.17,NE,36,5.8,5.8,40,0.00,,,0.00,WeatherDisplay:10.36,2013-02-03 16:41:00,
2013-02-03 10:46:00,35.1,13.1,30.17,NE,48,6.3,6.3,40,0.00,,,0.00,WeatherDisplay:10.36,2013-02-03 16:46:00,
2013-02-03 10:51:00,35.1,12.6,30.17,NE,49,6.9,6.9,39,0.00,,,0.00,WeatherDisplay:10.36,2013-02-03 16:51:00,
2013-02-03 10:56:00,35.1,12.6,30.17,NE,47,11.5,11.5,39,0.00,,,0.00,WeatherDisplay:10.36,2013-02-03 16:56:00,
2013-02-03 11:01:00,34.9,11.8,30.17,ESE,106,9.6,9.6,38,0.00,,,0.00,WeatherDisplay:10.36,2013-02-03 17:01:00,
2013-02-03 11:06:00,34.9,11.8,30.17,NE,50,9.2,9.2,38,0.00,,,0.00,WeatherDisplay:10.36,2013-02-03 17:06:00,
2013-02-03 11:11:00,34.9,11.8,30.17,ENE,60,6.3,6.3,38,0.00,,,0.00,WeatherDisplay:10.36,2013-02-03 17:11:00,
2013-02-03 11:16:00,35.1,12.0,30.17,NE,48,9.2,9.2,38,0.00,,,0.00,WeatherDisplay:10.36,2013-02-03 17:16:00,
2013-02-03 11:21:00,35.1,12.6,30.17,NE,56,6.3,6.3,39,0.00,,,0.00,WeatherDisplay:10.36,2013-02-03 17:21:00,
2013-02-03 11:26:00,35.2,12.7,30.17,NE,49,6.3,6.3,39,0.00,,,0.00,WeatherDisplay:10.36,2013-02-03 17:26:00,
2013-02-03 11:31:00,35.4,12.9,30.17,NE,53,6.9,6.9,39,0.00,,,0.00,WeatherDisplay:10.36,2013-02-03 17:31:00,
2013-02-03 11:36:00,35.4,12.3,30.17,NE,47,9.6,9.6,38,0.00,,,0.00,WeatherDisplay:10.36,2013-02-03 17:36:00,
2013-02-03 11:41:00,35.4,11.7,30.17,NE,48,8.3,8.3,37,0.00,,,0.00,WeatherDisplay:10.36,2013-02-03 17:41:00,
2013-02-03 11:46:00,35.4,12.3,30.17,NE,46,6.9,6.9,38,0.00,,,0.00,WeatherDisplay:10.36,2013-02-03 17:46:00,
2013-02-03 11:51:00,35.6,12.5,30.17,ENE,58,9.6,9.6,38,0.00,,,0.00,WeatherDisplay:10.36,2013-02-03 17:51:00,
2013-02-03 11:56:00,35.8,12.6,30.17,ENE,59,6.3,6.3,38,0.00,,,0.00,WeatherDisplay:10.36,2013-02-03 17:56:00,
2013-02-03 12:01:00,35.8,13.2,30.17,NE,50,9.2,9.2,39,0.00,,,0.00,WeatherDisplay:10.36,2013-02-03 18:01:00,
2013-02-03 12:06:00,36.0,13.4,30.14,NE,48,5.8,5.8,39,0.00,,,0.00,WeatherDisplay:10.36,2013-02-03 18:06:00,
2013-02-03 12:11:00,36.1,13.5,30.14,NE,50,9.2,9.2,39,0.00,,,0.00,WeatherDisplay:10.36,2013-02-03 18:11:00,
2013-02-03 12:16:00,36.5,13.9,30.14,NE,50,8.1,8.1,39,0.00,,,0.00,WeatherDisplay:10.36,2013-02-03 18:16:00,
2013-02-03 12:21:00,36.7,14.0,30.14,NE,53,4.9,4.9,39,0.00,,,0.00,WeatherDisplay:10.36,2013-02-03 18:21:00,
2013-02-03 12:26:00,36.7,13.4,30.14,ENE,78,8.1,8.1,38,0.00,,,0.00,WeatherDisplay:10.36,2013-02-03 18:26:00,
2013-02-03 12:31:00,36.7,13.4,30.14,ESE,112,4.9,4.9,38,0.00,,,0.00,WeatherDisplay:10.36,2013-02-03 18:31:00,
2013-02-03 12:36:00,36.9,13.0,30.14,NE,49,7.8,7.8,37,0.00,,,0.00,WeatherDisplay:10.36,2013-02-03 18:36:00,
2013-02-03 12:41:00,36.9,12.4,30.14,East,100,8.7,8.7,36,0.00,,,0.00,WeatherDisplay:10.36,2013-02-03 18:41:00,
2013-02-03 12:46:00,36.9,11.7,30.14,NE,46,6.3,6.3,35,0.00,,,0.00,WeatherDisplay:10.36,2013-02-03 18:46:00,
2013-02-03 12:51:00,36.5,10.7,30.14,ENE,76,7.4,7.4,34,0.00,,,0.00,WeatherDisplay:10.36,2013-02-03 18:51:00,
2013-02-03 12:56:00,36.5,11.4,30.14,NE,55,6.9,6.9,35,0.00,,,0.00,WeatherDisplay:10.36,2013-02-03 18:56:00,
2013-02-03 13:01:00,36.5,10.1,30.11,NE,46,6.7,6.7,33,0.00,,,0.00,WeatherDisplay:10.36,2013-02-03 19:01:00,
2013-02-03 13:06:00,36.5,10.7,30.11,NNE,27,5.8,5.8,34,0.00,,,0.00,WeatherDisplay:10.36,2013-02-03 19:06:00,
2013-02-03 13:11:00,36.7,11.6,30.11,NE,47,5.8,5.8,35,0.00,,,0.00,WeatherDisplay:10.36,2013-02-03 19:11:00,
2013-02-03 13:16:00,36.9,11.7,30.11,East,79,6.9,6.9,35,0.00,,,0.00,WeatherDisplay:10.36,2013-02-03 19:16:00,
2013-02-03 13:21:00,36.9,11.7,30.11,NE,53,6.9,6.9,35,0.00,,,0.00,WeatherDisplay:10.36,2013-02-03 19:21:00,
2013-02-03 13:26:00,37.0,12.5,30.11,NE,52,6.3,6.3,36,0.00,,,0.00,WeatherDisplay:10.36,2013-02-03 19:26:00,
2013-02-03 13:31:00,37.4,12.8,30.11,NE,48,6.7,6.7,36,0.00,,,0.00,WeatherDisplay:10.36,2013-02-03 19:31:00,
2013-02-03 18:40:00,30.2,9.3,30.03,NE,45,5.4,5.4,41,0.00,,,0.00,WeatherDisplay:10.36,2013-02-04 00:40:00,
2013-02-03 18:45:00,30.2,9.3,30.03,NE,37,5.8,5.8,41,0.00,,,0.00,WeatherDisplay:10.36,2013-02-04 00:45:00,
2013-02-03 18:50:00,30.0,9.1,30.03,NE,45,5.8,5.8,41,0.00,,,0.00,WeatherDisplay:10.36,2013-02-04 00:50:00,
2013-02-03 18:55:00,30.0,9.1,30.03,NE,43,3.6,0.0,41,0.00,,,0.00,WeatherDisplay:10.36,2013-02-04 00:55:00,
2013-02-03 19:00:00,30.0,9.1,30.03,NE,47,5.8,5.8,41,0.00,,,0.00,WeatherDisplay:10.36,2013-02-04 01:00:00,
2013-02-03 19:05:00,30.0,9.1,30.03,NE,37,0.0,2.7,41,0.00,,,0.00,WeatherDisplay:10.36,2013-02-04 01:05:00,
2013-02-03 19:11:00,29.8,9.0,30.03,NE,38,0.0,0.0,41,0.00,,,0.00,WeatherDisplay:10.36,2013-02-04 01:11:00,
2013-02-03 19:16:00,29.7,8.8,30.03,NE,45,0.0,0.0,41,0.00,,,0.00,WeatherDisplay:10.36,2013-02-04 01:16:00,
2013-02-03 19:21:00,29.7,8.8,30.03,NE,52,0.0,0.0,41,0.00,,,0.00,WeatherDisplay:10.36,2013-02-04 01:21:00,
2013-02-03 19:26:00,29.7,8.8,30.03,NE,46,5.4,5.4,41,0.00,,,0.00,WeatherDisplay:10.36,2013-02-04 01:26:00,
2013-02-03 19:31:00,29.5,8.6,30.03,NE,42,4.9,0.0,41,0.00,,,0.00,WeatherDisplay:10.36,2013-02-04 01:31:00,
2013-02-03 19:36:00,29.5,8.6,30.03,NE,45,6.9,6.9,41,0.00,,,0.00,WeatherDisplay:10.36,2013-02-04 01:36:00,
2013-02-03 19:41:00,29.3,8.5,30.03,NE,43,6.9,6.9,41,0.00,,,0.00,WeatherDisplay:10.36,2013-02-04 01:41:00,
2013-02-03 19:46:00,29.1,8.3,30.03,NE,44,5.8,5.8,41,0.00,,,0.00,WeatherDisplay:10.36,2013-02-04 01:46:00,
2013-02-03 19:51:00,29.1,8.3,30.00,NE,46,5.8,5.8,41,0.00,,,0.00,WeatherDisplay:10.36,2013-02-04 01:51:00,
2013-02-03 19:56:00,29.1,8.8,30.00,NE,38,5.8,5.8,42,0.00,,,0.00,WeatherDisplay:10.36,2013-02-04 01:56:00,
2013-02-03 20:01:00,29.1,8.8,30.00,NE,53,3.6,3.6,42,0.00,,,0.00,WeatherDisplay:10.36,2013-02-04 02:01:00,
2013-02-03 20:06:00,29.1,8.8,30.00,NE,38,3.5,3.5,42,0.00,,,0.00,WeatherDisplay:10.36,2013-02-04 02:06:00,
2013-02-03 20:11:00,28.9,8.7,30.00,NE,39,3.6,3.6,42,0.00,,,0.00,WeatherDisplay:10.36,2013-02-04 02:11:00,
2013-02-03 20:16:00,28.9,8.1,30.00,NE,38,2.3,0.0,41,0.00,,,0.00,WeatherDisplay:10.36,2013-02-04 02:16:00,
2013-02-03 20:21:00,28.9,8.1,30.00,NE,38,0.0,0.0,41,0.00,,,0.00,WeatherDisplay:10.36,2013-02-04 02:21:00,
2013-02-03 20:26:00,28.8,8.0,30.00,NE,38,0.0,0.0,41,0.00,,,0.00,WeatherDisplay:10.36,2013-02-04 02:26:00,
2013-02-03 20:31:00,28.8,8.0,30.00,NE,38,0.0,0.0,41,0.00,,,0.00,WeatherDisplay:10.36,2013-02-04 02:31:00,
2013-02-03 20:36:00,28.6,7.8,30.00,NE,35,4.5,4.5,41,0.00,,,0.00,WeatherDisplay:10.36,2013-02-04 02:36:00,
2013-02-03 20:41:00,28.6,7.8,30.00,NE,36,0.0,0.0,41,0.00,,,0.00,WeatherDisplay:10.36,2013-02-04 02:41:00,
2013-02-03 20:47:00,28.6,7.8,30.00,NE,35,3.5,3.5,41,0.00,,,0.00,WeatherDisplay:10.36,2013-02-04 02:47:00,
2013-02-03 20:52:00,28.6,7.8,30.00,NE,36,0.0,0.0,41,0.00,,,0.00,WeatherDisplay:10.36,2013-02-04 02:52:00,
2013-02-03 20:57:00,28.4,7.7,30.00,NE,36,0.0,0.0,41,0.00,,,0.00,WeatherDisplay:10.36,2013-02-04 02:57:00,
2013-02-03 21:02:00,28.4,7.7,30.00,NE,36,0.0,0.0,41,0.00,,,0.00,WeatherDisplay:10.36,2013-02-04 03:02:00,
2013-02-03 21:07:00,28.2,7.5,30.00,NE,36,0.0,0.0,41,0.00,,,0.00,WeatherDisplay:10.36,2013-02-04 03:07:00,
2013-02-03 21:12:00,28.2,7.5,30.00,NE,36,0.0,0.0,41,0.00,,,0.00,WeatherDisplay:10.36,2013-02-04 03:12:00,
2013-02-03 21:17:00,28.0,7.3,30.00,NE,37,0.0,0.0,41,0.00,,,0.00,WeatherDisplay:10.36,2013-02-04 03:17:00,
2013-02-03 21:22:00,28.0,7.3,30.00,NE,36,0.0,0.0,41,0.00,,,0.00,WeatherDisplay:10.36,2013-02-04 03:22:00,
2013-02-03 21:27:00,28.0,7.9,30.00,NE,36,0.0,0.0,42,0.00,,,0.00,WeatherDisplay:10.36,2013-02-04 03:27:00,
2013-02-03 21:32:00,28.0,7.9,30.00,NE,36,0.0,0.0,42,0.00,,,0.00,WeatherDisplay:10.36,2013-02-04 03:32:00,
2013-02-03 21:37:00,28.0,7.9,30.00,NE,37,0.0,0.0,42,0.00,,,0.00,WeatherDisplay:10.36,2013-02-04 03:37:00,
2013-02-03 21:42:00,28.0,7.9,30.00,NE,36,0.0,0.0,42,0.00,,,0.00,WeatherDisplay:10.36,2013-02-04 03:42:00,
2013-02-03 21:47:00,28.0,7.9,29.97,NE,37,0.0,0.0,42,0.00,,,0.00,WeatherDisplay:10.36,2013-02-04 03:47:00,
2013-02-03 21:53:00,28.0,7.9,29.97,NE,37,0.0,0.0,42,0.00,,,0.00,WeatherDisplay:10.36,2013-02-04 03:53:00,
2013-02-03 21:58:00,28.0,7.9,29.97,NE,36,0.0,0.0,42,0.00,,,0.00,WeatherDisplay:10.36,2013-02-04 03:58:00,
2013-02-03 22:04:00,28.0,7.9,29.97,NE,36,0.0,0.0,42,0.00,,,0.00,WeatherDisplay:10.36,2013-02-04 04:04:00,
2013-02-03 22:09:00,28.0,7.9,29.97,NE,36,0.0,0.0,42,0.00,,,0.00,WeatherDisplay:10.36,2013-02-04 04:09:00,
2013-02-03 22:14:00,27.9,7.7,29.97,NE,36,0.0,0.0,42,0.00,,,0.00,WeatherDisplay:10.36,2013-02-04 04:14:00,
2013-02-03 22:19:00,27.9,7.7,29.97,NE,36,0.0,0.0,42,0.00,,,0.00,WeatherDisplay:10.36,2013-02-04 04:19:00,
2013-02-03 22:24:00,27.9,7.7,29.97,NE,36,0.0,0.0,42,0.00,,,0.00,WeatherDisplay:10.36,2013-02-04 04:24:00,
2013-02-03 22:29:00,27.9,7.7,29.97,NNE,30,0.0,0.0,42,0.00,,,0.00,WeatherDisplay:10.36,2013-02-04 04:29:00,
2013-02-03 22:34:00,27.9,8.2,29.97,NNE,30,0.0,0.0,43,0.00,,,0.00,WeatherDisplay:10.36,2013-02-04 04:34:00,
2013-02-03 22:39:00,27.9,8.2,29.97,NNE,30,0.0,0.0,43,0.00,,,0.00,WeatherDisplay:10.36,2013-02-04 04:39:00,
2013-02-03 22:44:00,27.9,8.2,29.97,NNE,30,0.0,0.0,43,0.00,,,0.00,WeatherDisplay:10.36,2013-02-04 04:44:00,
2013-02-03 22:49:00,27.9,8.7,29.97,NNE,30,0.0,0.0,44,0.00,,,0.00,WeatherDisplay:10.36,2013-02-04 04:49:00,
2013-02-03 22:54:00,27.7,8.6,29.97,NNE,29,0.0,0.0,44,0.00,,,0.00,WeatherDisplay:10.36,2013-02-04 04:54:00,
2013-02-03 22:59:00,27.7,8.6,29.97,NNE,30,0.0,0.0,44,0.00,,,0.00,WeatherDisplay:10.36,2013-02-04 04:59:00,
2013-02-03 23:00:00,27.7,9.1,29.97,NNE,30,0.0,0.0,45,0.00,,,0.00,WeatherDisplay:10.36,2013-02-04 05:00:00,
2013-02-03 23:02:00,27.7,9.1,29.97,NNE,30,0.0,0.0,45,0.00,,,0.00,WeatherDisplay:10.36,2013-02-04 05:02:00,
2013-02-03 23:03:00,27.7,9.1,29.97,NNE,30,0.0,0.0,45,0.00,,,0.00,WeatherDisplay:10.36,2013-02-04 05:03:00,
2013-02-03 23:04:00,27.7,9.1,29.97,NNE,30,0.0,0.0,45,0.00,,,0.00,WeatherDisplay:10.36,2013-02-04 05:04:00,
2013-02-03 23:09:00,27.7,9.1,29.97,NNE,30,0.0,0.0,45,0.00,,,0.00,WeatherDisplay:10.36,2013-02-04 05:09:00,
2013-02-03 23:14:00,27.7,9.1,29.97,NNE,29,0.0,0.0,45,0.00,,,0.00,WeatherDisplay:10.36,2013-02-04 05:14:00,
2013-02-03 23:19:00,27.7,9.6,29.94,NNE,30,0.0,0.0,46,0.00,,,0.00,WeatherDisplay:10.36,2013-02-04 05:19:00,
2013-02-03 23:24:00,27.9,9.7,29.94,NNE,29,0.0,0.0,46,0.00,,,0.00,WeatherDisplay:10.36,2013-02-04 05:24:00,
2013-02-03 23:29:00,27.9,9.7,29.94,NNE,30,0.0,0.0,46,0.00,,,0.00,WeatherDisplay:10.36,2013-02-04 05:29:00,
2013-02-03 23:34:00,27.7,10.0,29.94,NNE,30,0.0,0.0,47,0.00,,,0.00,WeatherDisplay:10.36,2013-02-04 05:34:00,
2013-02-03 23:39:00,27.7,10.0,29.94,NNE,30,0.0,0.0,47,0.00,,,0.00,WeatherDisplay:10.36,2013-02-04 05:39:00,
2013-02-03 23:44:00,27.7,10.5,29.94,NNE,29,0.0,0.0,48,0.00,,,0.00,WeatherDisplay:10.36,2013-02-04 05:44:00,
2013-02-03 23:49:00,27.5,10.8,29.94,NNE,26,0.0,0.0,49,0.00,,,0.00,WeatherDisplay:10.36,2013-02-04 05:49:00,
2013-02-03 23:54:00,27.3,11.5,29.94,NNE,26,0.0,0.0,51,0.00,,,0.00,WeatherDisplay:10.36,2013-02-04 05:54:00,
2013-02-03 23:59:00,27.1,11.4,29.94,NNE,26,0.0,0.0,51,0.00,,,0.00,WeatherDisplay:10.36,2013-02-04 05:59:00,